Vorticity
-9 -4 3 -6 8 1 5 -6 3 13 10 7 3 -1 9 3 3 2 1 9 27 11 11 2 -5 -7 -0 12 3 7 15 4
10 -33 7 -4 4 -0 -2 4 7 5 8 -1 3 8 9 -1 5 12 6 11 21 24 9 1 17 5 3 4 5 12 2 4
-60 45 43 45 -8 2 2 2 11 4 5 6 4 12 10 20 9 -3 5 8 8 -5 21 5 -3 4 8 6 15 4 4 4
73 -47 53 32 11 9 1 11 6 8 13 8 11 10 -33 26 -1 17 11 10 0 41 4 6 8 8 5 8 9 4 4 4
46 35 13 14 37 1 14 -2 8 -18 35 -13 22 36 10 8 10 2 16 23 22 6 7 3 3 5 4 11 3 4 4 4
1 3 5 4 2 9 3 36 -10 2 23 -3 -1 5 2 -6 4 13 8 33 6 2 -1 6 5 6 13 4 3 3 4 5
2 2 3 6 2 11 -1 6 12 6 3 11 -7 -14 24 4 11 10 56 20 9 2 4 7 5 12 3 3 2 1 4 3
7 6 4 8 3 3 13 -1 -6 1 9 -4 4 25 10 10 10 29 15 2 0 2 4 5 11 3 4 2 3 3 2 4
6 4 5 7 8 4 -10 34 -6 -6 -1 19 3 18 16 10 27 29 4 -3 4 4 2 6 7 4 2 1 2 3 3 4
4 9 8 3 4 13 15 11 5 -8 23 1 -2 28 11 43 19 -6 2 3 4 -0 10 8 2 3 1 2 2 4 3 3
9 16 20 13 17 7 9 19 13 17 7 -6 34 26 27 -2 0 -0 0 1 0 8 7 3 4 2 1 3 1 3 5 8
13 7 11 10 6 12 20 9 20 19 52 42 12 14 13 2 2 1 2 3 11 7 3 4 2 2 0 3 4 4 7 6
28 3 14 18 7 21 27 38 34 18 9 1 6 9 3 0 9 5 1 11 6 3 3 2 4 4 4 1 1 8 14 12
34 20 23 8 9 12 10 2 1 -0 2 0 4 6 -3 6 3 13 12 8 3 1 3 2 1 4 3 2 9 13 11 3
4 12 5 6 4 7 5 4 7 4 5 7 5 5 10 9 3 10 3 2 2 2 2 3 5 18 7 4 1 7 10 8
5 5 6 8 10 10 6 8 7 7 7 6 7 8 6 6 6 4 5 5 6 4 -1 -8 1 -9 -3 4 -1 -1 -3 1
9 -1 2 4 3 5 7 7 6 8 10 9 9 9 10 7 5 7 5 -7 -2 22 22 22 11 11 2 7 11 1 2 2
2 1 2 2 4 6 6 3 7 4 -1 16 11 9 5 3 1 12 19 18 18 -5 7 0 10 4 2 23 19 7 1 9
6 5 4 7 6 5 6 6 7 10 2 5 18 0 5 15 12 11 -0 2 4 1 11 4 12 4 27 6 8 3 1 7
10 9 9 11 7 6 7 7 1 8 2 4 11 2 1 5 2 4 8 2 7 5 15 -3 23 -9 8 4 6 4 3 11
Height
5768 5773 5778 5783 5789 5796 5802 5806 5808 5809 5811 5812 5813 5816 5818 5818 5817 5819 5819 5820 5820 5821 5823 5824 5824 5826 5827 5826 5830 5828 5827 5827
5757 5746 5766 5776 5782 5791 5796 5800 5802 5804 5807 5808 5810 5813 5815 5814 5814 5814 5814 5815 5814 5815 5819 5818 5822 5823 5824 5825 5828 5825 5826 5826
5757 5747 5739 5759 5776 5786 5790 5792 5796 5800 5803 5805 5807 5809 5810 5810 5809 5809 5809 5809 5810 5812 5814 5818 5819 5820 5821 5822 5825 5822 5823 5823
5743 5751 5760 5761 5770 5781 5785 5789 5793 5796 5798 5800 5803 5802 5802 5802 5803 5804 5803 5804 5806 5808 5812 5815 5816 5817 5818 5818 5821 5819 5819 5819
5756 5760 5759 5764 5771 5778 5782 5785 5788 5791 5791 5794 5794 5793 5796 5797 5798 5798 5798 5798 5802 5805 5809 5811 5813 5814 5814 5815 5817 5815 5815 5815
5756 5753 5759 5762 5767 5774 5778 5779 5780 5783 5785 5787 5790 5790 5789 5792 5793 5792 5792 5793 5799 5802 5805 5807 5809 5809 5809 5811 5811 5812 5813 5811
5757 5760 5762 5763 5766 5771 5774 5774 5776 5778 5781 5782 5784 5783 5784 5785 5787 5787 5788 5789 5795 5799 5801 5804 5805 5806 5807 5807 5807 5808 5808 5805
5759 5758 5759 5761 5764 5767 5768 5772 5772 5773 5776 5777 5778 5779 5779 5780 5782 5783 5784 5787 5792 5796 5799 5800 5801 5802 5802 5803 5802 5802 5802 5800
5752 5754 5757 5758 5758 5759 5761 5762 5766 5769 5771 5772 5773 5772 5772 5775 5776 5780 5783 5787 5790 5793 5794 5796 5797 5798 5799 5799 5798 5797 5795 5794
5748 5750 5751 5752 5753 5754 5756 5759 5762 5765 5766 5768 5769 5769 5770 5772 5775 5781 5782 5785 5788 5790 5792 5793 5794 5795 5795 5793 5792 5790 5789 5789
5745 5748 5748 5749 5749 5750 5754 5754 5756 5758 5762 5763 5763 5764 5769 5773 5775 5779 5780 5784 5786 5788 5789 5790 5792 5791 5790 5787 5786 5785 5783 5782
5741 5742 5743 5742 5744 5744 5747 5749 5750 5754 5758 5758 5762 5766 5770 5773 5776 5779 5779 5781 5783 5783 5785 5786 5786 5785 5784 5781 5780 5778 5778 5775
5740 5740 5741 5739 5741 5741 5744 5747 5750 5751 5754 5760 5764 5766 5768 5771 5773 5775 5777 5778 5779 5780 5781 5782 5781 5778 5777 5775 5775 5775 5771 5767
5736 5737 5739 5740 5744 5746 5748 5750 5753 5754 5758 5761 5764 5763 5766 5769 5770 5772 5774 5775 5775 5776 5776 5776 5774 5772 5770 5768 5768 5765 5763 5761
5739 5742 5743 5745 5748 5747 5749 5751 5754 5756 5758 5758 5760 5762 5763 5765 5767 5769 5771 5772 5772 5772 5771 5768 5767 5765 5763 5761 5759 5757 5755 5751
5739 5739 5740 5745 5746 5746 5747 5750 5752 5753 5752 5755 5757 5760 5761 5762 5763 5763 5765 5767 5766 5765 5763 5761 5759 5758 5755 5753 5750 5748 5744 5741
5742 5742 5743 5745 5745 5747 5748 5748 5749 5751 5751 5752 5754 5756 5757 5758 5759 5760 5759 5758 5759 5757 5754 5752 5749 5749 5747 5744 5742 5738 5735 5732
5740 5741 5743 5744 5744 5745 5745 5746 5747 5748 5749 5750 5751 5752 5751 5753 5754 5755 5753 5752 5751 5750 5746 5743 5739 5738 5735 5732 5729 5726 5723 5720
5740 5741 5742 5741 5741 5742 5742 5742 5745 5745 5745 5746 5746 5747 5747 5747 5747 5747 5746 5743 5742 5740 5737 5734 5730 5727 5724 5722 5719 5715 5711 5706
5738 5738 5738 5738 5737 5738 5739 5739 5740 5741 5741 5740 5740 5741 5741 5741 5742 5740 5739 5735 5732 5729 5726 5723 5721 5717 5715 5712 5708 5703 5698 5693